| time (UTC) | temp F | wind direction | speed knots | gust knots | rain 1hr in | rain 24hr in | rain mn in | humidity % | barometer mb |
| 20260901064550 | 42 | 321 | 2.6 | 7.8 | 0.00 | 0.14 | 0.09 | 77 | 1006.9 |
| 20260901063103 | 42 | 316 | 2.6 | 7.0 | 0.00 | 0.14 | 0.09 | 76 | 1006.7 |
| 20260901061602 | 42 | 53 | 2.6 | 6.1 | 0.00 | 0.14 | 0.09 | 76 | 1006.6 |
| 20260901060046 | 43 | 345 | 2.6 | 8.7 | 0.00 | 0.14 | 0.09 | 76 | 1006.3 |
| 20260901054607 | 44 | 31 | 2.6 | 11.3 | 0.00 | 0.14 | 0.09 | 76 | 1006.1 |
| 20260901053055 | 44 | 325 | 3.5 | 10.4 | 0.00 | 0.14 | 0.09 | 76 | 1006.1 |
| 20260901051549 | 45 | 13 | 3.5 | 8.7 | 0.00 | 0.14 | 0.09 | 76 | 1006.0 |
| 20260901050002 | 45 | 340 | 2.6 | 7.8 | 0.00 | 0.14 | 0.09 | 76 | 1006.0 |
| 20260901044612 | 45 | 23 | 1.7 | 6.1 | 0.00 | 0.14 | 0.09 | 75 | 1005.8 |
| 20260901043047 | 46 | 10 | 1.7 | 5.2 | 0.00 | 0.14 | 0.09 | 74 | 1005.6 |
| 20260901041502 | 46 | 60 | 1.7 | 7.0 | 0.00 | 0.14 | 0.09 | 73 | 1005.3 |
| 20260901040100 | 47 | 38 | 2.6 | 7.8 | 0.00 | 0.14 | 0.09 | 73 | 1005.1 |
| 20260901034548 | 47 | 323 | 1.7 | 10.4 | 0.00 | 0.14 | 0.09 | 72 | 1005.0 |
| 20260901033059 | 47 | 12 | 2.6 | 12.2 | 0.00 | 0.14 | 0.09 | 71 | 1004.7 |
| 20260901031558 | 48 | 32 | 5.2 | 10.4 | 0.00 | 0.14 | 0.09 | 69 | 1004.5 |
| 20260901030049 | 49 | 335 | 2.6 | 9.6 | 0.00 | 0.14 | 0.09 | 68 | 1004.1 |
| 20260901024502 | 49 | 25 | 4.3 | 12.2 | 0.00 | 0.14 | 0.09 | 67 | 1003.7 |
| 20260901023055 | 49 | 315 | 4.3 | 11.3 | 0.00 | 0.14 | 0.09 | 67 | 1003.4 |
| 20260901021605 | 50 | 64 | 5.2 | 13.0 | 0.00 | 0.14 | 0.09 | 66 | 1003.2 |
| 20260901020100 | 51 | 41 | 7.0 | 12.2 | 0.00 | 0.14 | 0.09 | 64 | 1002.8 |
| 20260901014557 | 51 | 41 | 4.3 | 13.0 | 0.00 | 0.14 | 0.09 | 65 | 1002.5 |
| 20260901013051 | 51 | 63 | 4.3 | 13.0 | 0.00 | 0.14 | 0.09 | 64 | 1002.1 |
| 20260901011501 | 51 | 49 | 4.3 | 14.8 | 0.00 | 0.14 | 0.09 | 65 | 1001.8 |
| 20260901010158 | 51 | 15 | 7.8 | 19.1 | 0.00 | 0.14 | 0.09 | 64 | 1001.5 |
| 20260901004549 | 51 | 26 | 3.5 | 13.0 | 0.00 | 0.14 | 0.09 | 66 | 1001.4 |
| 20260901003042 | 51 | 44 | 6.1 | 13.9 | 0.00 | 0.14 | 0.09 | 66 | 1001.1 |
| 20260901001604 | 51 | 41 | 4.3 | 15.6 | 0.00 | 0.14 | 0.09 | 68 | 1000.8 |
| 20260901000051 | 51 | 63 | 6.1 | 17.4 | 0.00 | 0.14 | 0.09 | 67 | 1000.4 |
| 20260831234547 | 51 | 51 | 8.7 | 17.4 | 0.00 | 0.14 | 0.09 | 67 | 1000.2 |
| 20260831233054 | 50 | 58 | 6.1 | 15.6 | 0.00 | 0.14 | 0.09 | 72 | 1000.1 |
| 20260831231602 | 49 | 31 | 8.7 | 18.2 | 0.00 | 0.14 | 0.09 | 72 | 999.8 |
| 20260831230051 | 49 | 25 | 6.1 | 20.0 | 0.00 | 0.14 | 0.09 | 73 | 999.6 |
| 20260831224629 | 49 | 62 | 8.7 | 21.7 | 0.00 | 0.14 | 0.09 | 73 | 999.3 |
| 20260831223051 | 50 | 65 | 8.7 | 19.1 | 0.00 | 0.14 | 0.09 | 74 | 999.2 |
| 20260831221553 | 50 | 11 | 6.1 | 13.0 | 0.00 | 0.14 | 0.09 | 79 | 999.1 |
| 20260831220059 | 50 | 15 | 4.3 | 13.0 | 0.00 | 0.14 | 0.09 | 79 | 999.0 |
| 20260831214554 | 50 | 37 | 4.3 | 13.0 | 0.00 | 0.14 | 0.09 | 81 | 999.1 |
| 20260831213049 | 49 | 9 | 5.2 | 10.4 | 0.00 | 0.14 | 0.09 | 82 | 999.0 |
| 20260831211608 | 48 | 358 | 3.5 | 11.3 | 0.00 | 0.14 | 0.09 | 85 | 999.2 |
| 20260831204547 | 47 | 321 | 1.7 | 9.6 | 0.00 | 0.14 | 0.09 | 92 | 999.2 |
| 20260831203059 | 46 | 323 | 2.6 | 7.8 | 0.00 | 0.14 | 0.09 | 93 | 999.2 |
| 20260831201558 | 45 | 300 | 3.5 | 7.0 | 0.00 | 0.14 | 0.09 | 94 | 999.4 |
| 20260831200049 | 44 | 342 | 3.5 | 9.6 | 0.00 | 0.14 | 0.09 | 93 | 999.6 |
| 20260831194612 | 44 | 333 | 0.9 | 5.2 | 0.00 | 0.14 | 0.09 | 94 | 999.7 |
| 20260831193059 | 44 | 324 | 1.7 | 7.0 | 0.00 | 0.14 | 0.09 | 94 | 1000.0 |
| 20260831191551 | 43 | 297 | 0.9 | 5.2 | 0.00 | 0.14 | 0.09 | 95 | 1000.1 |
| 20260831190003 | 43 | 333 | 0.9 | 3.5 | 0.00 | 0.14 | 0.09 | 96 | 1000.4 |
| 20260831184556 | 42 | 304 | 0.0 | 2.6 | 0.00 | 0.14 | 0.09 | 95 | 1000.5 |
| 20260831183046 | 42 | 326 | 0.9 | 2.6 | 0.00 | 0.14 | 0.09 | 95 | 1000.5 |
| 20260831181546 | 42 | 354 | 0.0 | 1.7 | 0.00 | 0.14 | 0.09 | 96 | 1000.8 |
| 20260831180055 | 42 | 10 | 0.0 | 3.5 | 0.00 | 0.14 | 0.09 | 96 | 1000.9 |
| 20260831174550 | 42 | 324 | 0.0 | 2.6 | 0.00 | 0.14 | 0.09 | 96 | 1001.2 |
| 20260831173047 | 42 | 25 | 0.0 | 1.7 | 0.00 | 0.14 | 0.09 | 96 | 1001.4 |
| 20260831171557 | 42 | 341 | 0.0 | 1.7 | 0.00 | 0.14 | 0.09 | 97 | 1001.5 |
| 20260831170050 | 41 | 134 | 0.0 | 0.9 | 0.00 | 0.14 | 0.09 | 97 | 1001.6 |
| 20260831164546 | 41 | 134 | 0.0 | 0.0 | 0.00 | 0.14 | 0.09 | 98 | 1001.6 |
| 20260831163059 | 41 | 134 | 0.0 | 0.9 | 0.00 | 0.14 | 0.09 | 98 | 1001.7 |
| 20260831161551 | 40 | 135 | 0.0 | 0.0 | 0.00 | 0.14 | 0.09 | 98 | 1002.0 |
| 20260831160047 | 40 | 150 | 0.0 | 0.0 | 0.00 | 0.14 | 0.09 | 98 | 1002.2 |
| 20260831154606 | 39 | 151 | 0.0 | 0.0 | 0.00 | 0.14 | 0.09 | 98 | 1002.3 |
| 20260831153041 | 39 | 151 | 0.0 | 0.0 | 0.00 | 0.14 | 0.09 | 98 | 1002.6 |
| 20260831151611 | 39 | 151 | 0.0 | 0.0 | 0.00 | 0.14 | 0.09 | 98 | 1002.7 |
| 20260831150049 | 39 | 151 | 0.0 | 0.0 | 0.00 | 0.14 | 0.09 | 97 | 1002.9 |
| 20260831144546 | 38 | 151 | 0.0 | 0.0 | 0.00 | 0.14 | 0.09 | 97 | 1003.1 |
| 20260831143113 | 39 | 151 | 0.0 | 0.0 | 0.00 | 0.14 | 0.09 | 96 | 1003.2 |
| 20260831141550 | 40 | 151 | 0.0 | 0.0 | 0.00 | 0.14 | 0.09 | 97 | 1003.4 |
| 20260831140001 | 40 | 150 | 0.0 | 0.0 | 0.00 | 0.14 | 0.09 | 97 | 1003.6 |
| 20260831134559 | 40 | 150 | 0.0 | 0.0 | 0.00 | 0.14 | 0.09 | 97 | 1003.9 |
| 20260831133046 | 41 | 169 | 0.0 | 1.7 | 0.00 | 0.14 | 0.09 | 97 | 1004.1 |
| 20260831131502 | 41 | 141 | 0.0 | 0.9 | 0.01 | 0.14 | 0.09 | 97 | 1004.3 |
| 20260831130106 | 41 | 164 | 0.0 | 1.7 | 0.01 | 0.14 | 0.09 | 96 | 1004.5 |
| 20260831124558 | 41 | 129 | 0.0 | 1.7 | 0.01 | 0.14 | 0.09 | 96 | 1004.6 |
| 20260831123041 | 41 | 143 | 0.0 | 2.6 | 0.02 | 0.14 | 0.09 | 96 | 1004.8 |
| 20260831121607 | 41 | 147 | 0.9 | 2.6 | 0.01 | 0.13 | 0.08 | 96 | 1005.0 |
| 20260831120050 | 41 | 169 | 0.9 | 1.7 | 0.02 | 0.13 | 0.08 | 96 | 1005.2 |
| 20260831114503 | 42 | 219 | 0.0 | 1.7 | 0.02 | 0.13 | 0.08 | 96 | 1005.5 |
| 20260831113056 | 42 | 238 | 0.9 | 2.6 | 0.03 | 0.12 | 0.07 | 96 | 1005.6 |
| 20260831111555 | 42 | 238 | 0.0 | 3.5 | 0.04 | 0.12 | 0.07 | 96 | 1005.8 |
| 20260831110040 | 43 | 254 | 0.9 | 2.6 | 0.03 | 0.11 | 0.06 | 96 | 1006.0 |
| 20260831104557 | 43 | 219 | 1.7 | 3.5 | 0.04 | 0.11 | 0.06 | 96 | 1006.0 |
| 20260831103053 | 43 | 197 | 1.7 | 4.3 | 0.02 | 0.09 | 0.04 | 95 | 1006.3 |
| 20260831101507 | 43 | 226 | 0.9 | 3.5 | 0.01 | 0.08 | 0.03 | 95 | 1006.3 |
| 20260831100106 | 43 | 196 | 0.0 | 3.5 | 0.02 | 0.08 | 0.03 | 94 | 1006.5 |
| 20260831094610 | 43 | 162 | 0.0 | 2.6 | 0.01 | 0.07 | 0.02 | 94 | 1006.8 |
| 20260831093001 | 44 | 197 | 0.0 | 1.7 | 0.01 | 0.07 | 0.02 | 93 | 1006.9 |
| 20260831091612 | 44 | 143 | 0.0 | 1.7 | 0.02 | 0.07 | 0.02 | 92 | 1007.0 |
| 20260831090052 | 44 | 154 | 0.0 | 0.9 | 0.01 | 0.06 | 0.01 | 91 | 1007.1 |
| 20260831084505 | 44 | 238 | 0.0 | 0.9 | 0.02 | 0.06 | 0.01 | 92 | 1007.2 |
| 20260831083100 | 44 | 98 | 0.0 | 0.9 | 0.03 | 0.06 | 0.01 | 91 | 1007.4 |
| 20260831081555 | 45 | 148 | 0.0 | 0.9 | 0.02 | 0.05 | 0.00 | 88 | 1007.6 |
| 20260831080044 | 45 | 146 | 0.0 | 0.0 | 0.03 | 0.05 | 0.00 | 91 | 1007.7 |
| 20260831074559 | 45 | 259 | 0.0 | 4.3 | 0.03 | 0.04 | 0.04 | 86 | 1007.9 |
| 20260831073051 | 45 | 229 | 0.9 | 1.7 | 0.03 | 0.03 | 0.03 | 88 | 1007.9 |
| 20260831071604 | 46 | 339 | 0.0 | 0.0 | 0.03 | 0.03 | 0.03 | 81 | 1008.0 |